Regional Weather Roundup
Issued by NWS Northern Indiana

Home | Current Version | Previous Version | Text Only | Print | Product List | Glossary Off
Versions: 1 2 3 4 5 6 7 8 9 10 11 12 13 14 15 16 17 18 19 20 21 22 23 24 25 26 27 28 29 30 31 32 33 34 35 36 37 38 39 40 41 42 43 44 45 46 47 48 49 50

000
ASUS43 KIWX 260610
RWRIWX

KIWX WEATHER ROUNDUP
NATIONAL WEATHER SERVICE NORTHERN INDIANA
200 AM EDT SUN OCT 26 2014

NOTE: "FAIR" INDICATES FEW OR NO CLOUDS BELOW 12,000 FEET WITH NO
SIGNIFICANT WEATHER AND/OR OBSTRUCTIONS TO VISIBILITY.

* THESE STATIONS ARE NOT UNDER NWS QUALITY CONTROL. THEY ALSO MAY NOT
  REPORT WEATHER SUCH AS PRECIPITATION OR FOG.

INZ001>027-260700-
NORTHERN INDIANA

CITY           SKY/WX    TMP DP  RH WIND       PRES   REMARKS
GARY*          CLEAR     55  29  35 NW7       29.98S
VALPARAISO     CLEAR     55  33  43 NW7       29.97R
6HR MIN TEMP:  55; 6HR MAX TEMP:  63;

MICHIGAN CITY* CLEAR     54  34  47 NW8       29.96S
LAPORTE*       CLEAR     56  33  43 NW8       29.96S
6HR MIN TEMP:  55; 6HR MAX TEMP:  63;

KNOX*          CLEAR     48  33  55 NW7       29.95S
6HR MIN TEMP:  29; 6HR MAX TEMP:  81;

SOUTH BEND     CLEAR     54  32  43 NW10      29.95S
6HR MIN TEMP:  53; 6HR MAX TEMP:  60;

GOSHEN         CLEAR     50  33  52 NW7       29.93S
6HR MIN TEMP:  49; 6HR MAX TEMP:  56;

MONTICELLO*    CLEAR     44  36  71 CALM      29.97R
6HR MIN TEMP:  44; 6HR MAX TEMP:  64;

LOGANSPORT*    CLEAR     50  32  50 NW5       29.97R
ROCHESTER*     CLEAR     52  32  46 W6        29.96R
WARSAW*        CLEAR     46  32  57 NW5       29.94S
ANGOLA*        CLEAR     48  36  61 W3        29.91R
FORT WAYNE     CLEAR     48  34  58 W8        29.94R
6HR MIN TEMP:  48; 6HR MAX TEMP:  59;

HUNTINGTON*    CLEAR    N/A N/A N/A W3        29.94R
PERU/GRISSOM   CLEAR     50  36  58 NW8       29.96R
6HR MIN TEMP:  49; 6HR MAX TEMP:  58;

MARION*        CLEAR     46  35  64 W5        29.96R
6HR MIN TEMP:  29; 6HR MAX TEMP:  90;


$$
INZ028>050-260700-
CENTRAL INDIANA

CITY           SKY/WX    TMP DP  RH WIND       PRES   REMARKS
LAFAYETTE      CLEAR     52  33  48 NW5       29.98S
6HR MIN TEMP:  51; 6HR MAX TEMP:  63;

KOKOMO*        CLEAR     48  34  57 NW8       29.97R
6HR MIN TEMP:  48; 6HR MAX TEMP:  61;

MUNCIE*        CLEAR     53  34  48 W9        29.95R
6HR MIN TEMP:  53; 6HR MAX TEMP:  63;

INDIANAPOLIS   CLEAR     53  34  48 NW9       29.97
6HR MIN TEMP:  53; 6HR MAX TEMP:  64;


$$
MIZ043>046-050>051-056>058-064>065-071>073-077>080-260700-
SOUTHWEST LOWER MICHIGAN

CITY           SKY/WX    TMP DP  RH WIND       PRES   REMARKS
BATTLE CREEK   CLEAR     52  32  46 NW8       29.90S
6HR MIN TEMP:  51; 6HR MAX TEMP:  59;

BENTON HARBOR  CLEAR     55  39  54 NW10G20   29.93S
6HR MIN TEMP:  55; 6HR MAX TEMP:  60;

COLDWATER*     CLEAR     46  33  59 W6        29.90R
6HR MIN TEMP:  45; 6HR MAX TEMP:  58;

HILLSDALE*     CLEAR     50  33  51 NW8       29.88R
6HR MIN TEMP:  50; 6HR MAX TEMP:  58;

HOLLAND        CLEAR     57  36  45 NW10      29.92R
6HR MIN TEMP:  57; 6HR MAX TEMP:  62;

GRAND RAPIDS   CLEAR     51  35  54 W8        29.90R
6HR MIN TEMP:  51; 6HR MAX TEMP:  59;

KALAMAZOO      CLEAR     51  32  48 NW6       29.91R
6HR MIN TEMP:  51; 6HR MAX TEMP:  60;

STURGIS*       CLEAR     52  34  50 W6        29.91R
THREE RIVERS*  FAIR      52  34  50 NW6       29.91S

$$
OHZ001>008-015>018-024>025-260700-
NORTHWEST OHIO

CITY           SKY/WX    TMP DP  RH WIND       PRES   REMARKS
WAUSEON*       FAIR      46  34  61 W9        29.88R
DEFIANCE       CLEAR     50  34  54 VRB3      29.90R
6HR MIN TEMP:  50; 6HR MAX TEMP:  61;

FINDLAY        CLEAR     45  34  65 W7        29.88R HAZE
6HR MIN TEMP:  44; 6HR MAX TEMP:  61;

TOLEDO EXPRESS CLEAR     47  32  56 W8        29.87R
6HR MIN TEMP:  47; 6HR MAX TEMP:  58;

TOLEDO METCALF CLEAR     49  33  54 W9        29.87R
6HR MIN TEMP:  48; 6HR MAX TEMP:  61;

LIMA           CLEAR     52  35  52 W8        29.90S
6HR MIN TEMP:  52; 6HR MAX TEMP:  62;


$$
AND FOR LAKE MICHIGAN COASTAL AND OPEN LAKE BUOY OBSERVATIONS

STATION/POSITION TEMP    WIND        PRES    VSBY  WAVE
                 AIR SEA DIR/SP/G                  HT/PER
                 (F)     (DEG/KT/KT) (MB)    (MI)  (FT/S)
CALUMET HARBOR    55     270/  3/  6 1014.0R
MICHIGAN CITY     57     280/ 17/ 20   N/A
SAINT JOSEPH      58                 1014.6R
SOUTH LAKE BUOY   56 54  300/ 17/ 19 1013.6R         3/ 5

$$
&&



USA.gov is the U.S. government's official web portal to all federal, state and local government web resources and services.